Regional Weather Roundup
Issued by NWS

Home | Current Version | Previous Version | Graphics & Text | Print | Product List | Glossary Off
Versions: 1 2 3 4 5 6 7 8 9 10 11 12 13 14 15 16 17 18 19 20 21 22 23 24 25 26 27 28 29 30 31 32 33 34 35 36 37 38 39 40 41 42 43 44 45 46 47 48 49 50

000
ASUS45 KABQ 310010
RWRNM
WEATHER ROUNDUP FOR NEW MEXICO
NATIONAL WEATHER SERVICE ALBUQUERQUE NM
600 PM MDT MON MAR 30 2015

NOTE: "FAIR" MEANS FEW OR NO CLOUDS BELOW 12,000 FEET AGL WITH NO
       SIGNIFICANT WEATHER OR OBSTRUCTIONS TO VISION.

      THIS PRODUCT IS RELEASED AS TWO VERSIONS.  ONE VERSION NEAR
      THE TOP OF THE HOUR CONTAINING PRELIMINARY DATA FROM ALBUQUERQUE
      AND OTHER STATIONS.  A FINAL VERSION WITH ADDITIONAL DATA IS
      ISSUED ABOUT 10 MINUTES AFTER THE HOUR.

NMZ501-503-504-510>518-310100-
NORTHWEST PLATEAU/NORTHCENTRAL MOUNTAINS

CITY           SKY/WX    TMP DP  RH WIND       PRES   REMARKS
FARMINGTON     SUNNY     74  11   9 W13       30.10S
6HR MIN TEMP:  66; 6HR MAX TEMP:  78;

LOS ALAMOS     PTSUNNY   62  22  21 S10       30.22F
SANTA FE       PTSUNNY   66  21  18 N14       30.17S
6HR MIN TEMP:  65; 6HR MAX TEMP:  73;

TAOS           PTSUNNY   66  21  18 SW16      30.18F
ANGEL FIRE     FAIR      57  20  23 CALM      30.27R

$$
NMZ402-403-502-505>509-310100-
WESTCENTRAL MOUNTAINS/SOUTHWEST MOUNTAINS

CITY           SKY/WX    TMP DP  RH WIND       PRES   REMARKS
GALLUP         PTSUNNY   71  15  11 N15       30.17F
6HR MIN TEMP:  68; 6HR MAX TEMP:  75;

GRANTS         CLOUDY    69  12  11 W7        30.18S
SILVER CITY    MOSUNNY   73  23  15 NW12      30.14F

$$
NMZ407-409-411-412-310100-
SOUTHERN DESERTS

CITY           SKY/WX    TMP DP  RH WIND       PRES   REMARKS
LORDSBURG      FAIR      79  25  13 NW10G16   30.06S
DEMING         PTSUNNY   81  23  11 SW10      30.05F
6HR MIN TEMP:  75; 6HR MAX TEMP:  85;

LAS CRUCES     PTSUNNY   79  22  12 S13       30.08S
HOLLOMAN AFB   PTSUNNY   81  24  12 S6        30.04S
ALAMOGORDO     CLOUDY    77  28  16 SW7       30.07S
T OR C         PTSUNNY   78  24  13 S8        30.07F
6HR MIN TEMP:  73; 6HR MAX TEMP:  81;


$$
NMZ519>523-310100-
CENTRAL VALLEYS/CENTRAL HIGHLANDS

CITY           SKY/WX    TMP DP  RH WIND       PRES   REMARKS
ALBUQUERQUE    PTSUNNY   77  14   9 CALM      30.09F
6HR MIN TEMP:  67; 6HR MAX TEMP:  79;

DOUBLE EAGLE   PTSUNNY   72  18  13 N8        30.13S
MORIARTY ARPT  FAIR      72   8   8 NW8       30.16S
6HR MIN TEMP:  69; 6HR MAX TEMP:  76;

CLINES CORNERS MOSUNNY   69   6   8 NW20G29   30.18S
6HR MIN TEMP:  65; 6HR MAX TEMP:  73;

BELEN          FAIR      74  16  11 S7        30.09F
6HR MIN TEMP:  69; 6HR MAX TEMP:  79;

SOCORRO        FAIR      76  24  14 E6        30.09S
6HR MIN TEMP:  72; 6HR MAX TEMP:  82;


$$
NMZ524>526-539-540-310100-
SOUTHCENTRAL MOUNTAINS

CITY           SKY/WX    TMP DP  RH WIND       PRES   REMARKS
RUIDOSO        PTSUNNY   64  25  22 W22G33    30.23R

$$
NMZ527>531-310100-
NORTHEAST HIGHLANDS/NORTHEAST PLAINS

CITY           SKY/WX    TMP DP  RH WIND       PRES   REMARKS
LAS VEGAS      CLOUDY    65  19  17 NW18      30.18R
6HR MIN TEMP:  65; 6HR MAX TEMP:  75; 6HR PCP: TRACE;

RATON          CLOUDY    65  22  19 SW16      30.12S
6HR MIN TEMP:  61; 6HR MAX TEMP:  72;

CLAYTON        CLOUDY    72  26  18 SW14G23   30.05S
6HR MIN TEMP:  68; 6HR MAX TEMP:  79;


$$
NMZ532>537-310100-
EASTCENTRAL PLAINS

CITY           SKY/WX    TMP DP  RH WIND       PRES   REMARKS
TUCUMCARI      PTSUNNY   83  22  10 SW15      30.00F
6HR MIN TEMP:  72; 6HR MAX TEMP:  84;

CANNON AFB     MOSUNNY   80  31  17 SW17      30.05F
6HR MIN TEMP:  69; 6HR MAX TEMP:  80;

CLOVIS AIRPORT MOSUNNY   77  37  24 S16G22    30.04F

$$
NMZ028-029-538-310100-
SOUTHEAST PLAINS

CITY           SKY/WX    TMP DP  RH WIND       PRES   REMARKS
ROSWELL        CLOUDY    73  44  35 S15       30.06F
6HR MIN TEMP:  67; 6HR MAX TEMP:  77;

ARTESIA        CLOUDY    72  48  43 SE15      30.06F
CARLSBAD       CLOUDY    73  50  44 SE10      30.05F
6HR MIN TEMP:  67; 6HR MAX TEMP:  74;

HOBBS          SUNNY     72  48  43 SE13      30.09S


$$


USA.gov is the U.S. government's official web portal to all federal, state and local government web resources and services.